TimeCDT,TemperatureF,Dew PointF,Humidity,Sea Level PressureIn,VisibilityMPH,Wind Direction,Wind SpeedMPH,Gust SpeedMPH,PrecipitationIn,Events,Conditions,WindDirDegrees,DateUTC
12:52 AM,43.0,37.0,80,30.06,10.0,SSE,8.1,-,N/A,,Clear,160,2012-10-09 05:52:00
1:52 AM,43.0,37.0,80,30.06,10.0,South,8.1,-,N/A,,Clear,170,2012-10-09 06:52:00
2:52 AM,42.1,37.0,82,30.04,10.0,South,9.2,-,N/A,,Clear,170,2012-10-09 07:52:00
3:52 AM,42.1,37.0,82,30.03,10.0,SSE,8.1,-,N/A,,Clear,160,2012-10-09 08:52:00
4:52 AM,42.1,37.0,82,30.03,10.0,South,10.4,-,N/A,,Clear,170,2012-10-09 09:52:00
5:52 AM,42.8,37.4,81,30.01,10.0,SSE,11.5,-,N/A,,Clear,160,2012-10-09 10:52:00
6:52 AM,42.1,37.0,82,30.02,10.0,SSE,10.4,-,N/A,,Clear,160,2012-10-09 11:52:00
7:52 AM,43.0,37.9,82,30.03,10.0,SSE,10.4,-,N/A,,Clear,160,2012-10-09 12:52:00
8:52 AM,46.9,39.9,77,30.03,10.0,South,13.8,-,N/A,,Clear,170,2012-10-09 13:52:00
9:52 AM,52.0,41.0,66,30.02,10.0,South,10.4,-,N/A,,Clear,180,2012-10-09 14:52:00
10:52 AM,55.9,42.1,60,30.01,10.0,South,13.8,-,N/A,,Clear,170,2012-10-09 15:52:00
11:52 AM,59.0,42.1,53,29.99,10.0,SSE,13.8,-,N/A,,Clear,160,2012-10-09 16:52:00
12:52 PM,62.1,44.1,52,29.95,10.0,SSE,15.0,19.6,N/A,,Clear,160,2012-10-09 17:52:00
1:52 PM,64.9,45.0,48,29.93,10.0,South,11.5,-,N/A,,Clear,190,2012-10-09 18:52:00
2:52 PM,63.0,45.0,52,29.92,10.0,SSW,10.4,-,N/A,,Overcast,200,2012-10-09 19:52:00
3:52 PM,62.1,45.0,53,29.92,10.0,South,9.2,-,N/A,,Overcast,190,2012-10-09 20:52:00
4:52 PM,61.0,46.0,58,29.93,10.0,SW,10.4,-,N/A,,Overcast,220,2012-10-09 21:52:00
5:52 PM,60.1,48.0,64,29.92,10.0,SSW,4.6,-,N/A,,Overcast,200,2012-10-09 22:52:00
6:52 PM,59.0,48.9,69,29.96,10.0,SW,9.2,-,N/A,,Overcast,230,2012-10-09 23:52:00
7:52 PM,57.0,51.1,81,29.98,10.0,West,6.9,-,N/A,,Overcast,260,2012-10-10 00:52:00
8:19 PM,57.2,51.8,82,29.99,10.0,West,6.9,-,N/A,,Overcast,270,2012-10-10 01:19:00
8:52 PM,55.0,53.1,93,30.00,3.0,West,5.8,-,0.00,Rain,Light Rain,280,2012-10-10 01:52:00
9:29 PM,55.4,53.6,94,30.01,2.5,West,4.6,-,0.01,Rain,Light Rain,270,2012-10-10 02:29:00
9:40 PM,55.4,53.6,94,30.02,3.0,West,5.8,-,0.02,Rain,Light Rain,280,2012-10-10 02:40:00
9:52 PM,55.0,53.1,93,30.02,5.0,WNW,4.6,-,0.02,,Overcast,290,2012-10-10 02:52:00
10:52 PM,55.0,53.1,93,30.04,5.0,WNW,4.6,-,N/A,,Overcast,300,2012-10-10 03:52:00
11:38 PM,53.6,50.0,88,30.07,6.0,North,20.7,28.8,0.00,Rain,Light Rain,360,2012-10-10 04:38:00
11:47 PM,51.8,48.2,88,30.08,10.0,North,12.7,-,0.00,Rain,Light Rain,360,2012-10-10 04:47:00
11:48 PM,52.0,48.9,89,30.07,10.0,North,11.5,-,0.00,Rain,Light Rain,360,2012-10-10 04:48:00
11:55 PM,51.8,48.2,88,30.08,10.0,North,12.7,-,0.00,Rain,Light Rain,350,2012-10-10 04:55:00